This demonstration page uses our WeatherBlox Daily Observations layout. Learn more.

Left ArrowRight Arrow

Hourly Observations for July 6, 2020

Temp ( °F °C ) Dew Point ( °F °C ) Humidity (%) Winds ( mph kmh ) Pressure ( in mb ) Visibility ( mi km ) Precip ( " mm )
12:51 am 00:51 Clear 89 31.7 35 1.7 15 15 NW 13 20 29.66 1005 10 16.0934 0 0
1:51 am 01:51 Clear 87 30.6 36 2.2 16 16 NW 12 19 29.66 1004 10 16.0934 0 0
2:51 am 02:51 Clear 83 28.3 35 1.7 18 18 WNW 12 19 29.67 1005 10 16.0934 0 0
3:51 am 03:51 Clear 82 27.8 37 2.8 20 20 NW 9 15 29.69 1005 10 16.0934 0 0
4:51 am 04:51 Clear 81 27.2 37 2.8 21 21 NW 3 6 29.72 1006 10 16.0934 0 0
5:51 am 05:51 Sunny 77 25 38 3.3 24 24 S 5 7 29.75 1008 10 16.0934 0 0
6:51 am 06:51 Sunny 82 27.8 38 3.3 21 21 SSW 3 6 29.77 1008 10 16.0934 0 0
7:51 am 07:51 Sunny 89 31.7 38 3.3 16 16 Calm 29.77 1008 10 16.0934 0 0
8:51 am 08:51 Sunny 96 35.6 34 1.1 11 11 WNW 14 22 29.76 1008 10 16.0934 0 0
9:51 am 09:51 Sunny 101 38.3 31 -0.6 8 8 WNW 16 26 29.75 1007 10 16.0934 0 0
10:51 am 10:51 Sunny 101 38.3 34 1.1 10 10 W 18 30 29.75 1008 10 16.0934 0 0
11:51 am 11:51 Sunny 104 40 30 -1.1 7 7 WNW 22 35 29.73 1007 10 16.0934 0 0
12:51 pm 12:51 Sunny 107 41.7 27 -2.8 6 6 NW 22 35 29.7 1006 10 16.0934 0 0
1:51 pm 13:51 Sunny 108 42.2 25 -3.9 5 5 WNW 18 30 29.69 1005 10 16.0934 0 0
2:51 pm 14:51 Sunny 107 41.7 25 -3.9 5 5 NNW 13 20 29.67 1005 10 16.0934 0 0
3:16 pm 15:16 Sunny 108 42.2 26 -3.3 6 6 W 14 22 29.51 999 10 16.0934 0 0
3:51 pm 15:51 Sunny 107 41.7 26 -3.3 6 6 W 15 24 29.65 1004 10 16.0934 0 0
4:51 pm 16:51 Sunny 107 41.7 27 -2.8 6 6 WNW 9 15 29.63 1003 10 16.0934 0 0
5:51 pm 17:51 Sunny 105 40.6 30 -1.1 7 7 NW 16 26 29.62 1003 10 16.0934 0 0
6:51 pm 18:51 Sunny 103 39.4 30 -1.1 8 8 WNW 21 33 29.63 1003 10 16.0934 0 0
7:51 pm 19:51 Clear 98 36.7 28 -2.2 8 8 WNW 16 26 29.64 1004 10 16.0934 0 0
8:51 pm 20:51 Clear 92 33.3 27 -2.8 10 10 NW 12 19 29.67 1005 10 16.0934 0 0
9:51 pm 21:51 Clear 92 33.3 29 -1.7 10 10 NW 13 20 29.69 1005 10 16.0934 0 0
10:51 pm 22:51 Clear 90 32.2 30 -1.1 12 12 WNW 15 24 29.7 1006 10 16.0934 0 0
11:51 pm 23:51 Clear 85 29.4 30 -1.1 14 14 NW 9 15 29.72 1007 10 16.0934 0 0

Powered by AerisWeather